EW2918 Weather Reports


time (UTC)temp
C
wind
direction
speed
KPH
gust
KPH
rain 1hr
cm
rain 24hr
cm
rain mn
cm
humidity
%
barometer
mb
20220124101304 1 0 0.0 0.0 0.00 0.00 0.00 77 1012.3
20220124100805 1 0 0.0 0.0 0.00 0.00 0.00 77 1012.3
20220124100304 1 0 0.0 0.0 0.00 0.00 0.00 77 1012.2
20220124094804 1 0 0.0 0.0 0.00 0.00 0.00 77 1012.1
20220124094304 1 0 0.0 0.0 0.00 0.00 0.00 77 1012.2
20220124093805 1 0 0.0 0.0 0.00 0.00 0.00 77 1012.1
20220124093304 1 0 0.0 0.0 0.00 0.00 0.00 77 1012.1
20220124091804 1 0 0.0 0.0 0.00 0.00 0.00 77 1012.0
20220124091304 1 0 0.0 0.0 0.00 0.00 0.00 77 1011.9
20220124090804 1 0 0.0 0.0 0.00 0.00 0.00 77 1011.7
20220124090304 1 0 0.0 0.0 0.00 0.00 0.00 77 1011.7
20220124084804 1 0 0.0 0.0 0.00 0.00 0.00 77 1011.8
20220124084304 1 0 0.0 0.0 0.00 0.00 0.00 77 1011.9
20220124083804 1 0 0.0 0.0 0.00 0.00 0.00 77 1011.9
20220124083304 1 0 0.0 0.0 0.00 0.00 0.00 77 1011.9
20220124081804 1 0 0.0 0.0 0.00 0.00 0.00 77 1012.1
20220124081304 1 0 0.0 0.0 0.00 0.00 0.00 77 1012.1
20220124080804 1 0 0.0 0.0 0.00 0.00 0.00 77 1012.1
20220124080304 1 0 0.0 0.0 0.00 0.00 0.00 77 1012.0
20220124074804 1 0 0.0 0.0 0.00 0.00 0.00 77 1011.7
20220124074304 1 0 0.0 0.0 0.00 0.00 0.00 77 1011.7
20220124073804 1 0 0.0 0.0 0.00 0.00 0.00 77 1011.7
20220124073304 1 0 0.0 0.0 0.00 0.00 0.00 77 1011.7
20220124071804 1 0 0.0 0.0 0.00 0.00 0.00 77 1011.7
20220124071303 1 0 0.0 0.0 0.00 0.00 0.00 77 1011.7
20220124070804 1 0 0.0 0.0 0.00 0.00 0.00 77 1011.6
20220124070304 1 0 0.0 0.0 0.00 0.00 0.00 77 1011.5
20220124064803 1 0 0.0 0.0 0.00 0.00 0.00 77 1011.6
20220124064304 1 0 0.0 0.0 0.00 0.00 0.00 77 1011.6
20220124063804 1 0 0.0 0.0 0.00 0.00 0.00 77 1011.6
20220124063304 1 0 0.0 0.0 0.00 0.00 0.00 77 1011.6
20220124061804 1 0 0.0 0.0 0.00 0.00 0.00 77 1011.6
20220124061305 1 191 0.0 0.0 0.00 0.00 0.00 77 1011.6
20220124060806 1 191 0.0 0.0 0.00 0.00 0.00 77 1011.6
20220124060305 0 193 0.0 0.0 0.00 0.00 0.00 77 1011.7
20220124054805 2 193 0.0 0.0 0.00 0.00 0.00 74 1011.7
20220124054306 2 193 0.0 0.0 0.00 0.00 0.00 72 1011.7
20220124053805 2 193 0.0 0.0 0.00 0.00 0.00 71 1011.8
20220124053305 2 193 0.0 0.0 0.00 0.00 0.00 69 1011.8
20220124051805 2 193 0.0 0.0 0.00 0.00 0.00 75 1011.8
20220124051305 2 193 0.0 0.0 0.00 0.00 0.00 76 1011.9
20220124050816 2 193 0.0 0.0 0.00 0.00 0.00 73 1011.9
20220124050305 2 193 0.0 0.0 0.00 0.00 0.00 76 1011.9
20220124044805 2 193 0.0 1.6 0.00 0.00 0.00 72 1011.8
20220124044305 2 193 0.0 1.6 0.00 0.00 0.00 72 1011.8
20220124043806 2 193 0.0 0.0 0.00 0.00 0.00 73 1011.9
20220124043305 2 193 0.0 0.0 0.00 0.00 0.00 74 1011.8
20220124041805 2 193 0.0 0.0 0.00 0.00 0.00 74 1011.9
20220124041305 2 193 0.0 0.0 0.00 0.00 0.00 74 1012.0
20220124040805 2 193 0.0 0.0 0.00 0.00 0.00 75 1012.1
20220124040306 2 193 0.0 0.0 0.00 0.00 0.00 76 1012.1
20220124034805 2 193 0.0 0.0 0.00 0.00 0.00 75 1012.0
20220124034305 2 193 0.0 0.0 0.00 0.00 0.00 77 1012.0
20220124033805 2 193 0.0 0.0 0.00 0.00 0.00 74 1012.0
20220124033305 2 193 0.0 0.0 0.00 0.00 0.00 74 1011.9
20220124031805 3 193 0.0 0.0 0.00 0.00 0.00 76 1011.8
20220124031305 3 193 0.0 0.0 0.00 0.00 0.00 75 1011.6
20220124030805 3 193 0.0 0.0 0.00 0.00 0.00 72 1011.6
20220124030305 4 193 0.0 0.0 0.00 0.00 0.00 70 1011.6
20220124024805 5 193 0.0 1.6 0.00 0.00 0.00 67 1011.4
20220124024305 5 193 0.0 3.2 0.00 0.00 0.00 64 1011.3
20220124023804 5 193 0.0 4.8 0.00 0.00 0.00 62 1011.2
20220124023305 5 193 1.6 4.8 0.00 0.00 0.00 62 1011.2
20220124021805 5 193 1.6 3.2 0.00 0.00 0.00 62 1011.0
20220124021305 5 193 1.6 3.2 0.00 0.00 0.00 62 1011.0
20220124020805 6 193 1.6 3.2 0.00 0.00 0.00 62 1011.1
20220124020305 6 193 1.6 3.2 0.00 0.00 0.00 62 1011.1
20220124014805 6 193 1.6 3.2 0.00 0.00 0.00 62 1011.1
20220124014305 6 193 1.6 3.2 0.00 0.00 0.00 62 1011.2
20220124004305 7 193 0.0 3.2 0.00 0.00 0.00 61 1011.3
20220124003804 7 193 0.0 3.2 0.00 0.00 0.00 60 1011.3
20220124003305 7 193 0.0 3.2 0.00 0.00 0.00 60 1011.3
20220124001804 7 193 1.6 4.8 0.00 0.00 0.00 60 1011.3
20220124001304 7 193 1.6 3.2 0.00 0.00 0.00 60 1011.3
20220124000804 7 193 0.0 3.2 0.00 0.00 0.00 59 1011.3
20220124000304 7 193 1.6 3.2 0.00 0.00 0.00 59 1011.2
20220123234804 8 193 0.0 3.2 0.00 0.00 0.00 58 1011.1
20220123234304 8 193 0.0 3.2 0.00 0.00 0.00 58 1011.1
20220123233804 8 193 0.0 3.2 0.00 0.00 0.00 57 1011.1
20220123233304 8 193 0.0 1.6 0.00 0.00 0.00 57 1011.0
20220123231804 8 193 1.6 3.2 0.00 0.00 0.00 54 1011.0
20220123231304 8 193 0.0 3.2 0.00 0.00 0.00 54 1010.9
20220123230804 8 193 1.6 3.2 0.00 0.00 0.00 53 1010.9
20220123230304 8 193 0.0 1.6 0.00 0.00 0.00 53 1011.0
20220123224804 9 193 1.6 3.2 0.00 0.00 0.00 51 1011.1
20220123224303 9 193 0.0 4.8 0.00 0.00 0.00 50 1011.0
20220123223804 10 193 0.0 4.8 0.00 0.00 0.00 49 1011.0
20220123223306 10 193 0.0 4.8 0.00 0.00 0.00 49 1011.1
20220123204304 11 193 0.0 4.8 0.00 0.00 0.00 48 1011.3
20220123203804 11 193 1.6 4.8 0.00 0.00 0.00 46 1011.4
20220123203304 11 193 0.0 3.2 0.00 0.00 0.00 47 1011.4
20220123201805 11 193 0.0 4.8 0.00 0.00 0.00 47 1011.6
20220123201304 11 193 1.6 4.8 0.00 0.00 0.00 46 1011.6
20220123200805 11 193 1.6 4.8 0.00 0.00 0.00 46 1011.6
20220123200304 11 193 0.0 4.8 0.00 0.00 0.00 47 1011.8
20220123194806 11 193 1.6 3.2 0.00 0.00 0.00 45 1011.9
20220123193305 11 193 1.6 3.2 0.00 0.00 0.00 45 1012.2
20220123191805 12 193 1.6 4.8 0.00 0.00 0.00 43 1012.5
20220123191306 12 193 1.6 4.8 0.00 0.00 0.00 43 1012.7
20220123190805 12 193 1.6 4.8 0.00 0.00 0.00 42 1012.8
20220123190305 12 193 1.6 4.8 0.00 0.00 0.00 44 1012.8
20220123184805 12 193 1.6 3.2 0.00 0.00 0.00 42 1013.0
20220123184304 12 193 1.6 3.2 0.00 0.00 0.00 43 1013.0
20220123183804 12 193 1.6 4.8 0.00 0.00 0.00 43 1013.0
20220123183305 11 193 1.6 4.8 0.00 0.00 0.00 42 1013.0
20220123181805 12 193 0.0 3.2 0.00 0.00 0.00 44 1013.3
20220123181305 12 193 0.0 3.2 0.00 0.00 0.00 44 1013.4
20220123180805 11 193 0.0 3.2 0.00 0.00 0.00 46 1013.6
20220123180305 11 193 0.0 3.2 0.00 0.00 0.00 46 1013.6
20220123174804 10 193 0.0 3.2 0.00 0.00 0.00 45 1014.1
20220123174305 10 193 1.6 3.2 0.00 0.00 0.00 46 1014.2
20220123173805 9 193 1.6 3.2 0.00 0.00 0.00 46 1014.4
20220123173305 9 193 0.0 4.8 0.00 0.00 0.00 44 1014.6
20220123171805 8 193 1.6 4.8 0.00 0.00 0.00 48 1015.1
20220123171305 8 193 0.0 3.2 0.00 0.00 0.00 52 1015.0
20220123170804 8 193 1.6 3.2 0.00 0.00 0.00 55 1015.2
20220123170306 8 193 1.6 3.2 0.00 0.00 0.00 52 1015.3
20220123120804 -3 0 0.0 0.0 0.00 0.00 0.00 93 1018.2
20220123120305 -3 0 0.0 0.0 0.00 0.00 0.00 93 1018.2
20220123114805 -3 0 0.0 0.0 0.00 0.00 0.00 93 1018.1
20220123114305 -3 0 0.0 0.0 0.00 0.00 0.00 93 1018.1
20220123113805 -3 0 0.0 0.0 0.00 0.00 0.00 93 1018.0
20220123113305 -3 0 0.0 0.0 0.00 0.00 0.00 93 1018.1
20220123111805 -3 0 0.0 0.0 0.00 0.00 0.00 93 1018.0
20220123111305 -3 0 0.0 0.0 0.00 0.00 0.00 93 1018.0
20220123110805 -3 0 0.0 0.0 0.00 0.00 0.00 93 1018.1
20220123110304 -3 0 0.0 0.0 0.00 0.00 0.00 93 1018.1
20220123104804 -3 0 0.0 0.0 0.00 0.00 0.00 93 1018.1
20220123104305 -3 0 0.0 0.0 0.00 0.00 0.00 93 1018.2
20220123103805 -3 0 0.0 0.0 0.00 0.00 0.00 93 1018.2
20220123103305 -3 0 0.0 0.0 0.00 0.00 0.00 93 1018.2
20220123101804 -3 0 0.0 0.0 0.00 0.00 0.00 93 1018.4